DELTA 1 DEB, 3123

Orbit data source: Space-Track

DELTA 1 DEB, 3123 is space debris in SSO originally from a launch on Fri, 10 Nov 1967 UTC launched from the Air Force Western Test Range (AFWTR). Debris objects in space refer to the collection of defunct objects orbiting the Earth. Examples of debris include non-operational satellites, rocket bodies, and fragments generated from explosions, collisions, or faulty payload assembly.

Loading next visibility...
DELTA 1 DEB details
Identifier
3123, 1967-114D
Orbit
SSO
Last TLE update1 day ago
Origin
Flag of USGSFC (US)
ManufacturerUnknown
MissionSpacecraft
Bus & MotorUnknown
MassUnknown
Launch date (UTC)
1967-11-10 (57 years ago)
Launch vehicleUnknown
Launch site
Air Force Western Test Range (AFWTR)
Object type
Payload
Rocket body
Debris
Shape & HBRUnknown
Radar Cross SectionSmall (<0.1 m²)

Expand to show TLE details & history

TLE from 1 day ago
0 DELTA 1 DEB
1 03123U 67114D   24355.26317109  .00000002  00000-0  33661-3 0  9990
2 03123 102.4141  99.2342 0028431 187.1049 199.8575 12.48081816600909
Epoch: 2024-12-20T06:18Z
Definitive object data (Epoch: 2024-12-20T06:18:57.982Z)
Latitude26.20999°
Longitude-91.02891°
Altitude1,496.392 km
Speed7.109 km/s
True Right ascension06h 12m 10s
True Declination26° 05' 12"
Sunlit
Object was in full shadow at TLE epoch
Visualization TLE readout
Latitude36.97417°
Longitude106.00588°
Altitude1,460.827 km
Speed7.143 km/s
Apparent Right ascension21h 38m 33s
Apparent Declination4° 10' 32"
Sunlit
Object is in daylight
Visualization observer readout
Local Sidereal Time12:44:44
Azimuth55.587° ENE
Elevation-28.645°
Doppler factor1
Orbital elements
Apogee altitude1,492.431 km
Perigee altitude1,447.804 km
Semi-major axis7,848.255 km
Eccentricity0.0028431
Inclination102.4141°
RAAN99.2342°
Arg. of periapsis187.1049°
True anomaly199.7472°
Mean anomaly199.8575°
Eccentric anomaly199.80231°
Mean motion3.12165 °/min
BSTAR0.00033661
Orbital period115.32 mins
Loading maneuver chart data...
Loading historical data...
Loading historical data...
Loading historical data...
Loading historical data...
Loading historical data...
Loading historical data...
Loading historical data...
Other satellites on launch #114 in the year 1967 (1967-11-10 UTC)

DELTA 1 DEB Visibility forecast

Observer location: undefined°, undefined

Span
Click to sort rows by Start time (UTC) header in descending order
Start Az.
Max El. time (UTC)
Max El. Az.
Max El.
End time (UTC)
End Az.
14 mins2024-12-21 19:21:44.066Z32.889° NE2024-12-21 19:28:44.066Z98.433° ESE34.837°2024-12-21 19:35:44.066Z168.385° S
13 mins2024-12-21 21:15:44.066Z1.257° NNE2024-12-21 21:21:44.066Z302.774° NW34.074°2024-12-21 21:28:44.066Z234.895° WSW
6 mins2024-12-22 04:35:44.066Z65.242° ENE2024-12-22 04:38:44.066Z42.098° NE14.487°2024-12-22 04:41:44.066Z19.86° NNE
15 mins2024-12-22 06:22:44.066Z142.631° SSE2024-12-22 06:29:44.066Z68.874° E41.978°2024-12-22 06:37:44.066Z348.199° N
12 mins2024-12-22 08:17:44.066Z213.75° SW2024-12-22 08:23:44.066Z267.405° W25.388°2024-12-22 08:29:44.066Z316.909° NNW
|